| time (UTC) | temp F | wind direction | speed knots | gust knots | rain 1hr in | rain 24hr in | rain mn in | humidity % | barometer mb |
| 20260831171905 | 80 | 236 | 1.7 | 6.1 | 0.00 | 0.00 | 0.00 | 36 | 1007.9 |
| 20260831171405 | 80 | 269 | 2.6 | 6.1 | 0.00 | 0.00 | 0.00 | 36 | 1007.9 |
| 20260831165905 | 78 | 84 | 1.7 | 2.6 | 0.00 | 0.00 | 0.00 | 36 | 1008.0 |
| 20260831164905 | 77 | 62 | 1.7 | 6.1 | 0.00 | 0.00 | 0.00 | 39 | 1008.1 |
| 20260831164405 | 76 | 82 | 1.7 | 6.1 | 0.00 | 0.00 | 0.00 | 39 | 1008.0 |
| 20260831163904 | 76 | 111 | 0.9 | 6.1 | 0.00 | 0.00 | 0.00 | 40 | 1008.1 |
| 20260831161905 | 75 | 16 | 1.7 | 6.1 | 0.00 | 0.00 | 0.00 | 43 | 1008.1 |
| 20260831161406 | 75 | 284 | 0.9 | 4.3 | 0.00 | 0.00 | 0.00 | 43 | 1008.1 |
| 20260831160905 | 74 | 307 | 0.9 | 4.3 | 0.00 | 0.00 | 0.00 | 43 | 1008.1 |
| 20260831155405 | 74 | 233 | 0.9 | 4.3 | 0.00 | 0.00 | 0.00 | 44 | 1008.2 |
| 20260831154905 | 74 | 2 | 1.7 | 7.0 | 0.00 | 0.00 | 0.00 | 44 | 1008.3 |
| 20260831154405 | 74 | 340 | 2.6 | 7.0 | 0.00 | 0.00 | 0.00 | 44 | 1008.4 |
| 20260831153905 | 73 | 317 | 1.7 | 7.0 | 0.00 | 0.00 | 0.00 | 46 | 1008.5 |
| 20260831153404 | 73 | 23 | 1.7 | 7.0 | 0.00 | 0.00 | 0.00 | 45 | 1008.6 |
| 20260831152905 | 72 | 273 | 1.7 | 7.0 | 0.00 | 0.00 | 0.00 | 48 | 1008.8 |
| 20260831152405 | 70 | 230 | 0.9 | 7.0 | 0.00 | 0.00 | 0.00 | 50 | 1009.0 |
| 20260831150905 | 69 | 65 | 1.7 | 2.6 | 0.00 | 0.00 | 0.00 | 52 | 1009.2 |
| 20260831150405 | 68 | 209 | 1.7 | 2.6 | 0.00 | 0.00 | 0.00 | 54 | 1009.3 |
| 20260831145405 | 68 | 303 | 0.9 | 2.6 | 0.00 | 0.00 | 0.00 | 55 | 1009.4 |
| 20260831143405 | 67 | 6 | 1.7 | 7.0 | 0.00 | 0.00 | 0.00 | 57 | 1009.6 |
| 20260831142406 | 67 | 311 | 1.7 | 7.0 | 0.00 | 0.00 | 0.00 | 58 | 1009.7 |
| 20260831141405 | 66 | 339 | 1.7 | 7.0 | 0.00 | 0.00 | 0.00 | 59 | 1009.7 |
| 20260831140904 | 66 | 13 | 0.9 | 2.6 | 0.00 | 0.00 | 0.00 | 60 | 1009.6 |
| 20260831133405 | 64 | 37 | 0.9 | 2.6 | 0.00 | 0.00 | 0.00 | 61 | 1009.9 |
| 20260831132904 | 64 | 355 | 0.0 | 2.6 | 0.00 | 0.00 | 0.00 | 61 | 1009.6 |
| 20260831132405 | 63 | 13 | 0.9 | 7.0 | 0.00 | 0.00 | 0.00 | 61 | 1009.5 |
| 20260831131904 | 63 | 0 | 0.9 | 7.0 | 0.00 | 0.00 | 0.00 | 61 | 1009.6 |
| 20260831131405 | 63 | 0 | 0.0 | 4.3 | 0.00 | 0.00 | 0.00 | 61 | 1009.5 |
| 20260831125405 | 63 | 0 | 0.0 | 1.7 | 0.00 | 0.00 | 0.00 | 59 | 1009.3 |
| 20260831124905 | 63 | 0 | 0.0 | 1.7 | 0.00 | 0.00 | 0.00 | 59 | 1009.2 |
| 20260831124404 | 63 | 0 | 0.0 | 2.6 | 0.00 | 0.00 | 0.00 | 59 | 1009.2 |
| 20260831123404 | 63 | 0 | 0.9 | 2.6 | 0.00 | 0.00 | 0.00 | 59 | 1009.0 |
| 20260831122905 | 63 | 0 | 0.9 | 2.6 | 0.00 | 0.00 | 0.00 | 59 | 1008.8 |
| 20260831122405 | 63 | 0 | 0.9 | 2.6 | 0.00 | 0.00 | 0.00 | 60 | 1008.8 |
| 20260831121405 | 63 | 0 | 0.9 | 2.6 | 0.00 | 0.00 | 0.00 | 61 | 1008.6 |
| 20260831120905 | 63 | 0 | 0.0 | 1.7 | 0.00 | 0.00 | 0.00 | 62 | 1008.7 |
| 20260831115905 | 62 | 0 | 0.9 | 4.3 | 0.00 | 0.00 | 0.00 | 63 | 1008.9 |
| 20260831115405 | 62 | 0 | 1.7 | 4.3 | 0.00 | 0.00 | 0.00 | 64 | 1008.7 |
| 20260831114405 | 61 | 0 | 0.0 | 1.7 | 0.00 | 0.00 | 0.00 | 65 | 1008.5 |
| 20260831112404 | 62 | 98 | 0.0 | 0.9 | 0.00 | 0.00 | 0.00 | 64 | 1007.9 |
| 20260831111905 | 62 | 98 | 0.0 | 0.9 | 0.00 | 0.00 | 0.00 | 62 | 1007.9 |
| 20260831111405 | 62 | 98 | 0.0 | 0.0 | 0.00 | 0.00 | 0.00 | 63 | 1007.8 |
| 20260831110905 | 62 | 98 | 0.0 | 0.0 | 0.00 | 0.00 | 0.00 | 62 | 1007.9 |
| 20260831110405 | 62 | 98 | 0.0 | 0.0 | 0.00 | 0.00 | 0.00 | 62 | 1008.1 |
| 20260831105905 | 62 | 98 | 0.0 | 0.0 | 0.00 | 0.00 | 0.00 | 62 | 1008.1 |
| 20260831105405 | 62 | 98 | 0.0 | 0.0 | 0.00 | 0.00 | 0.00 | 62 | 1008.1 |
| 20260831103904 | 62 | 98 | 0.0 | 0.0 | 0.00 | 0.00 | 0.00 | 62 | 1008.1 |
| 20260831101404 | 62 | 98 | 0.0 | 0.0 | 0.00 | 0.00 | 0.00 | 61 | 1008.1 |
| 20260831100405 | 63 | 98 | 0.0 | 0.0 | 0.00 | 0.00 | 0.00 | 61 | 1007.9 |
| 20260831095405 | 63 | 98 | 0.0 | 0.0 | 0.00 | 0.00 | 0.00 | 59 | 1007.8 |
| 20260831094905 | 63 | 98 | 0.0 | 0.0 | 0.00 | 0.00 | 0.00 | 59 | 1007.6 |
| 20260831091405 | 66 | 65 | 0.0 | 0.9 | 0.00 | 0.00 | 0.00 | 54 | 1007.5 |
| 20260831085405 | 66 | 50 | 0.9 | 2.6 | 0.00 | 0.00 | 0.00 | 53 | 1007.5 |
| 20260831084405 | 67 | 265 | 0.9 | 2.6 | 0.00 | 0.00 | 0.00 | 54 | 1007.6 |
| 20260831083905 | 67 | 301 | 0.0 | 0.9 | 0.00 | 0.00 | 0.00 | 53 | 1007.7 |
| 20260831082905 | 67 | 300 | 0.9 | 2.6 | 0.00 | 0.00 | 0.00 | 54 | 1007.7 |
| 20260831082404 | 67 | 28 | 0.0 | 2.6 | 0.00 | 0.00 | 0.00 | 53 | 1007.7 |
| 20260831080905 | 67 | 344 | 0.0 | 2.6 | 0.00 | 0.00 | 0.00 | 53 | 1007.7 |
| 20260831075905 | 67 | 48 | 1.7 | 2.6 | 0.00 | 0.00 | 0.00 | 53 | 1007.7 |
| 20260831075405 | 67 | 95 | 0.9 | 2.6 | 0.00 | 0.00 | 0.00 | 53 | 1007.8 |
| 20260831074905 | 67 | 15 | 0.9 | 2.6 | 0.00 | 0.00 | 0.00 | 53 | 1007.8 |
| 20260831074406 | 67 | 105 | 0.9 | 1.7 | 0.00 | 0.00 | 0.00 | 54 | 1007.8 |
| 20260831072904 | 66 | 121 | 0.9 | 1.7 | 0.00 | 0.00 | 0.00 | 54 | 1007.6 |
| 20260831072404 | 66 | 121 | 0.0 | 0.9 | 0.00 | 0.00 | 0.00 | 54 | 1007.7 |
| 20260831071405 | 66 | 113 | 0.0 | 0.9 | 0.00 | 0.00 | 0.00 | 53 | 1007.7 |
| 20260831070905 | 67 | 113 | 0.0 | 0.9 | 0.00 | 0.00 | 0.00 | 53 | 1007.7 |
| 20260831070405 | 67 | 113 | 0.0 | 0.9 | 0.00 | 0.00 | 0.00 | 53 | 1007.7 |
| 20260831065905 | 67 | 113 | 0.0 | 0.9 | 0.00 | 0.00 | 0.00 | 52 | 1007.8 |
| 20260831064905 | 67 | 59 | 0.0 | 2.6 | 0.00 | 0.00 | 0.00 | 51 | 1007.9 |
| 20260831064405 | 67 | 59 | 0.0 | 2.6 | 0.00 | 0.00 | 0.00 | 51 | 1007.8 |
| 20260831062405 | 65 | 328 | 0.9 | 2.6 | 0.00 | 0.00 | 0.00 | 54 | 1007.8 |
| 20260831061904 | 64 | 66 | 0.0 | 2.6 | 0.00 | 0.00 | 0.00 | 53 | 1007.8 |
| 20260831061404 | 64 | 304 | 1.7 | 2.6 | 0.00 | 0.00 | 0.00 | 55 | 1007.6 |
| 20260831060904 | 64 | 137 | 0.0 | 1.7 | 0.00 | 0.00 | 0.00 | 53 | 1007.0 |
| 20260831060405 | 64 | 137 | 0.0 | 0.9 | 0.00 | 0.00 | 0.00 | 53 | 1007.1 |
| 20260831055905 | 64 | 137 | 0.0 | 1.7 | 0.00 | 0.00 | 0.00 | 54 | 1007.0 |
| 20260831054904 | 65 | 137 | 0.9 | 2.6 | 0.00 | 0.00 | 0.00 | 54 | 1007.0 |
| 20260831053904 | 65 | 137 | 0.9 | 1.7 | 0.00 | 0.00 | 0.00 | 52 | 1007.0 |
| 20260831052905 | 66 | 137 | 0.0 | 0.9 | 0.00 | 0.00 | 0.00 | 51 | 1007.1 |
| 20260831052405 | 67 | 137 | 0.0 | 0.9 | 0.00 | 0.00 | 0.00 | 51 | 1007.1 |
| 20260831051904 | 67 | 137 | 0.0 | 0.9 | 0.00 | 0.00 | 0.00 | 50 | 1007.0 |
| 20260831051405 | 68 | 137 | 0.0 | 0.9 | 0.00 | 0.00 | 0.00 | 49 | 1007.0 |
| 20260831050404 | 68 | 137 | 0.0 | 1.7 | 0.00 | 0.00 | 0.00 | 48 | 1006.9 |
| 20260831045905 | 68 | 137 | 0.0 | 4.3 | 0.00 | 0.00 | 0.00 | 48 | 1006.8 |
| 20260831045405 | 68 | 145 | 0.0 | 4.3 | 0.00 | 0.00 | 0.00 | 48 | 1006.8 |
| 20260831044905 | 68 | 151 | 1.7 | 2.6 | 0.00 | 0.00 | 0.00 | 49 | 1006.8 |
| 20260831042905 | 68 | 134 | 0.0 | 0.0 | 0.00 | 0.00 | 0.00 | 49 | 1006.6 |
| 20260831041905 | 69 | 134 | 0.0 | 0.9 | 0.00 | 0.00 | 0.00 | 48 | 1006.7 |
| 20260831040405 | 69 | 134 | 0.9 | 2.6 | 0.00 | 0.00 | 0.00 | 48 | 1006.6 |
| 20260831035905 | 69 | 145 | 1.7 | 2.6 | 0.00 | 0.00 | 0.00 | 49 | 1006.7 |
| 20260831035405 | 70 | 146 | 0.9 | 1.7 | 0.00 | 0.00 | 0.00 | 48 | 1006.8 |
| 20260831034905 | 70 | 146 | 0.0 | 1.7 | 0.00 | 0.00 | 0.00 | 47 | 1006.6 |
| 20260831033904 | 70 | 146 | 0.0 | 1.7 | 0.00 | 0.00 | 0.00 | 46 | 1006.7 |
| 20260831031405 | 71 | 142 | 0.9 | 2.6 | 0.00 | 0.00 | 0.00 | 47 | 1006.2 |
| 20260831030405 | 71 | 142 | 0.0 | 2.6 | 0.00 | 0.00 | 0.00 | 47 | 1006.0 |
| 20260831025904 | 70 | 142 | 1.7 | 2.6 | 0.00 | 0.00 | 0.00 | 47 | 1006.0 |
| 20260831025405 | 70 | 143 | 1.7 | 2.6 | 0.00 | 0.00 | 0.00 | 48 | 1006.0 |
| 20260831023905 | 71 | 184 | 0.0 | 0.9 | 0.00 | 0.00 | 0.00 | 49 | 1005.7 |
| 20260831023405 | 71 | 184 | 0.0 | 0.9 | 0.00 | 0.00 | 0.00 | 48 | 1005.6 |
| 20260831022905 | 72 | 184 | 0.0 | 0.9 | 0.00 | 0.00 | 0.00 | 46 | 1005.6 |
| 20260831020905 | 74 | 184 | 0.0 | 0.0 | 0.00 | 0.00 | 0.00 | 41 | 1005.4 |
| 20260831015905 | 75 | 184 | 0.0 | 0.0 | 0.00 | 0.00 | 0.00 | 40 | 1005.1 |
| 20260831015404 | 76 | 184 | 0.0 | 0.0 | 0.00 | 0.00 | 0.00 | 40 | 1005.0 |
| 20260831013405 | 79 | 184 | 0.0 | 0.0 | 0.00 | 0.00 | 0.00 | 37 | 1004.8 |
| 20260831012904 | 79 | 184 | 0.0 | 0.0 | 0.00 | 0.00 | 0.00 | 36 | 1004.8 |
| 20260831012404 | 80 | 184 | 0.0 | 0.0 | 0.00 | 0.00 | 0.00 | 36 | 1004.7 |
| 20260831010905 | 81 | 184 | 0.0 | 0.9 | 0.00 | 0.00 | 0.00 | 33 | 1004.7 |
| 20260831010405 | 81 | 184 | 0.0 | 0.9 | 0.00 | 0.00 | 0.00 | 33 | 1004.6 |
| 20260831005404 | 82 | 184 | 0.0 | 2.6 | 0.00 | 0.00 | 0.00 | 32 | 1004.8 |
| 20260831003906 | 83 | 278 | 0.9 | 1.7 | 0.00 | 0.00 | 0.00 | 32 | 1004.8 |
| 20260831002905 | 83 | 319 | 0.0 | 2.6 | 0.00 | 0.00 | 0.00 | 32 | 1004.9 |
| 20260831001404 | 84 | 261 | 0.0 | 1.7 | 0.00 | 0.00 | 0.00 | 32 | 1005.0 |
| 20260831000905 | 84 | 261 | 0.9 | 1.7 | 0.00 | 0.00 | 0.00 | 30 | 1004.9 |
| 20260831000405 | 84 | 293 | 0.9 | 1.7 | 0.00 | 0.00 | 0.00 | 31 | 1004.9 |
| 20260830235404 | 84 | 121 | 0.0 | 1.7 | 0.00 | 0.00 | 0.00 | 32 | 1004.9 |
| 20260830233905 | 84 | 256 | 1.7 | 6.1 | 0.00 | 0.00 | 0.00 | 30 | 1004.8 |
| 20260830233405 | 84 | 212 | 1.7 | 6.1 | 0.00 | 0.00 | 0.00 | 32 | 1004.7 |
| 20260830230904 | 84 | 237 | 0.9 | 4.3 | 0.00 | 0.00 | 0.00 | 34 | 1004.8 |
| 20260830225905 | 83 | 282 | 0.9 | 7.0 | 0.00 | 0.00 | 0.00 | 34 | 1004.7 |
| 20260830225404 | 83 | 225 | 1.7 | 7.0 | 0.00 | 0.00 | 0.00 | 34 | 1004.8 |
| 20260830224905 | 83 | 272 | 1.7 | 2.6 | 0.00 | 0.00 | 0.00 | 34 | 1004.9 |
| 20260830224404 | 83 | 303 | 1.7 | 4.3 | 0.00 | 0.00 | 0.00 | 35 | 1005.0 |
| 20260830223404 | 82 | 283 | 0.9 | 5.2 | 0.00 | 0.00 | 0.00 | 36 | 1005.1 |
| 20260830214904 | 82 | 172 | 0.9 | 2.6 | 0.00 | 0.00 | 0.00 | 37 | 1005.3 |
| 20260830213405 | 81 | 328 | 0.9 | 4.3 | 0.00 | 0.00 | 0.00 | 39 | 1005.4 |
| 20260830212404 | 81 | 255 | 0.9 | 4.3 | 0.00 | 0.00 | 0.00 | 37 | 1005.4 |
| 20260830211904 | 81 | 194 | 1.7 | 4.3 | 0.00 | 0.00 | 0.00 | 38 | 1005.4 |
| 20260830210404 | 81 | 232 | 0.9 | 5.2 | 0.00 | 0.00 | 0.00 | 37 | 1005.6 |
| 20260830205905 | 81 | 183 | 0.9 | 5.2 | 0.00 | 0.00 | 0.00 | 37 | 1005.5 |
| 20260830205405 | 80 | 286 | 1.7 | 5.2 | 0.00 | 0.00 | 0.00 | 39 | 1005.6 |
| 20260830203904 | 80 | 183 | 3.5 | 7.8 | 0.00 | 0.00 | 0.00 | 39 | 1005.8 |
| 20260830202904 | 80 | 88 | 0.9 | 2.6 | 0.00 | 0.00 | 0.00 | 42 | 1005.9 |
| 20260830202404 | 80 | 20 | 1.7 | 2.6 | 0.00 | 0.00 | 0.00 | 43 | 1006.0 |
| 20260830201905 | 80 | 180 | 0.9 | 4.3 | 0.00 | 0.00 | 0.00 | 38 | 1006.1 |
| 20260830200404 | 80 | 224 | 2.6 | 5.2 | 0.00 | 0.00 | 0.00 | 39 | 1006.1 |
| 20260830195404 | 81 | 258 | 0.9 | 7.0 | 0.00 | 0.00 | 0.00 | 42 | 1006.3 |
| 20260830194905 | 82 | 223 | 1.7 | 8.7 | 0.00 | 0.00 | 0.00 | 40 | 1006.4 |
| 20260830193905 | 85 | 159 | 1.7 | 5.2 | 0.00 | 0.00 | 0.00 | 37 | 1006.5 |
| 20260830193405 | 85 | 219 | 1.7 | 5.2 | 0.00 | 0.00 | 0.00 | 32 | 1006.5 |
| 20260830192905 | 84 | 359 | 1.7 | 7.0 | 0.00 | 0.00 | 0.00 | 34 | 1006.5 |
| 20260830191904 | 85 | 192 | 1.7 | 10.4 | 0.00 | 0.00 | 0.00 | 33 | 1006.6 |
| 20260830191405 | 85 | 258 | 4.3 | 10.4 | 0.00 | 0.00 | 0.00 | 32 | 1006.6 |
| 20260830184905 | 84 | 25 | 2.6 | 6.1 | 0.00 | 0.00 | 0.00 | 32 | 1006.8 |
| 20260830184406 | 85 | 289 | 1.7 | 6.1 | 0.00 | 0.00 | 0.00 | 34 | 1007.0 |
| 20260830182405 | 83 | 328 | 1.7 | 4.3 | 0.00 | 0.00 | 0.00 | 36 | 1007.3 |
| 20260830181405 | 83 | 50 | 0.9 | 4.3 | 0.00 | 0.00 | 0.00 | 36 | 1007.3 |
| 20260830180405 | 82 | 302 | 2.6 | 6.1 | 0.00 | 0.00 | 0.00 | 37 | 1007.4 |
| 20260830175404 | 82 | 57 | 2.6 | 5.2 | 0.00 | 0.00 | 0.00 | 36 | 1007.5 |
| 20260830174904 | 82 | 167 | 0.9 | 5.2 | 0.00 | 0.00 | 0.00 | 39 | 1007.7 |
| 20260830172904 | 81 | 54 | 2.6 | 7.0 | 0.00 | 0.00 | 0.00 | 39 | 1008.0 |